STARLINK-11271 [DTC] (60915 NORAD) Tracking and Keplerian Element Data

This shows tracking and keplerian element data for the satellite.

Feedback or suggestion? Click here.




ElementValue
Catalog60915
NameSTARLINK-11271 [DTC]
Epoch Orbit794
Epoch Day286.78931445
Epoch Year2024
RAAN139.9565
Inclination53.1589
Eccentricity0.0001948
Argument of Perigee129.4451
Mean Anonmoly230.6743
Mean Motion15.76749459
Decay Rate5.974E-05
L11 60915U 24154N 24286.78931445 .00005974 00000+0 40444-4 0 9994
L22 60915 53.1589 139.9565 0001948 129.4451 230.6743 15.76749459 7942



Live tracking and technical data element details for STARLINK-11271 [DTC] (NORAD 60915). STARLINK-11271 [DTC] can be tracked NOW for your location showing map with azimuth and elevation plus other details from your city location.







IsCatalogInMostPopularTable: catalog: 60915, numindb: 10
Update: records affected: 1



GetName: 60915 STARLINK-11271 [DTC]

Hit Count: updated at: Fri, 06 Dec 2024 10:57:17 GMT